Presure
151 159 162 161 163 144 149 124 136 179 93 180 177 173 117 182 187 213 203 181 159 191 179 173 196 161 160 184 179 174 211 186 210 213 205 191 191 213 161 218 222 178 210
149 138 149 174 165 171 173 160 166 174 176 176 175 174 182 178 186 106 204 141 193 145 175 194 121 178 157 173 191 132 176 217 207 202 129 199 203 164 195 205 200 184 158
150 125 133 102 134 155 91 179 181 112 177 179 174 107 167 174 223 208 203 185 184 185 154 180 162 190 182 150 203 128 196 202 212 202 191 198 191 203 174 185 198 201 134
155 157 161 174 174 172 183 182 183 190 176 178 176 170 112 167 220 159 181 173 184 142 178 146 179 177 178 183 198 185 171 173 217 202 196 136 198 187 182 171 165 199 200
156 144 164 178 169 163 190 187 178 196 182 174 155 170 163 162 207 176 203 196 187 167 182 176 172 172 166 183 125 128 172 169 206 183 168 135 194 197 198 179 181 187 172
153 153 159 172 172 187 191 180 180 194 182 172 171 170 173 188 160 202 183 195 183 172 184 172 167 173 175 181 113 196 153 205 190 176 129 179 194 190 204 205 198 200 179
132 160 163 165 178 181 184 196 188 198 179 173 168 163 159 166 198 188 189 195 171 184 157 163 169 177 172 166 179 168 183 169 169 162 166 165 190 190 181 185 143 186 190
147 145 161 165 172 184 185 197 203 198 181 176 169 169 150 165 185 163 157 201 187 173 181 165 170 170 170 164 162 172 179 167 169 171 166 164 176 180 188 184 196 168 153
138 154 170 194 183 182 174 184 163 199 178 166 163 158 171 157 184 176 215 198 193 189 182 171 153 173 162 172 153 169 181 168 160 168 171 168 163 169 155 167 161 160 157
135 176 187 186 196 184 192 186 183 192 172 168 154 171 155 160 178 166 164 205 196 185 180 181 164 170 168 163 168 159 169 174 177 166 164 174 172 161 166 163 168 167 161
133 164 194 203 189 205 204 182 178 172 170 155 158 166 167 161 184 159 179 213 186 197 180 177 175 165 182 177 173 176 171 173 162 173 161 167 167 150 181 171 179 175 186
155 194 199 192 206 190 176 178 170 174 162 154 170 154 164 152 169 207 195 164 173 193 167 187 185 189 179 181 174 169 179 174 170 175 173 174 168 158 171 171 170 177 164
176 198 206 186 186 179 178 171 177 164 155 152 164 167 151 191 191 211 186 181 168 170 158 161 190 198 190 173 186 173 181 191 176 169 167 180 172 161 180 154 148 184 175
205 215 190 191 181 181 162 166 164 159 168 168 184 176 177 170 197 180 189 185 173 195 199 158 155 193 186 144 185 181 173 170 189 167 179 160 156 156 157 179 179 141 183
215 183 180 195 179 180 165 166 159 167 168 150 173 182 169 176 167 185 173 185 193 155 155 183 161 145 152 179 191 173 170 171 170 169 173 180 177 172 171 148 176 152 159
192 206 187 183 180 174 172 165 168 180 181 179 182 180 182 182 175 179 180 177 163 179 193 175 172 172 163 163 193 194 189 170 174 162 185 173 164 169 154 176 156 138 157
202 192 191 183 181 170 173 183 180 176 179 178 173 174 175 183 191 180 180 173 169 148 159 144 185 158 140 160 157 186 165 176 158 167 164 161 163 169 172 155 168 155 157
196 198 177 183 175 176 177 175 174 170 169 176 180 174 176 171 185 174 170 174 164 154 179 172 134 130 181 174 174 157 176 153 171 171 180 183 166 146 161 159 155 162 140
192 181 178 179 174 175 177 102 169 176 189 173 164 182 176 191 147 193 177 199 176 168 167 180 154 185 159 168 169 172 163 157 178 181 164 181 167 160 178 164 182 184 156
182 180 185 173 173 86 121 175 179 170 110 167 168 175 178 184 178 195 167 174 188 185 167 175 174 198 180 155 159 168 172 161 181 169 162 186 174 163 160 142 179 166 173
182 182 179 188 181 171 170 162 167 163 166 164 171 166 100 158 186 183 223 206 194 161 165 228 191 181 223 205 125 179 170 177 144 176 177 156 157 178 171 187 182 199 162
87 83 191 140 170 150 162 163 164 163 166 182 175 189 94 167 185 174 137 166 164 144 156 177 155 179 185 169 189 186 211 143 202 159 229 173 221 203 161 182 169 167 190
161 191 197 178 179 179 171 163 161 86 82 100 164 167 96 194 144 190 156 155 164 183 140 197 165 190 201 170 196 170 183 207 132 151 174 171 210 186 152 159 190 167 164
182 190 176 181 64 172 84 163 166 200 151 104 198 177 171 191 188 174 182 183 188 200 190 179 145 187 192 177 194 202 211 232 220 169 200 223 243 212 209 186 155 165 135
190 77 76 177 172 170 97 175 171 151 200 198 182 198 175 162 164 179 169 90 188 178 194 177 197 187 183 191 172 165 203 175 160 184 212 165 157 203 236 122 194 190 138
146 191 112 185 165 168 170 166 179 181 92 180 159 159 191 191 175 180 172 193 182 188 204 186 193 182 185 219 187 101 115 177 199 174 183 187 155 197 193 198 219 189 179
Wind_Speed
46 54 57 56 56 53 54 47 44 49 30 55 53 47 41 46 39 37 36 37 29 33 33 31 31 29 41 30 31 29 36 43 30 27 30 38 41 33 44 38 40 52 56
50 54 57 58 58 55 53 49 49 50 53 54 57 50 50 47 40 29 32 39 34 40 35 30 57 36 45 32 38 33 28 29 28 29 43 31 30 54 39 36 44 44 53
58 51 48 42 49 54 32 51 47 42 50 50 52 33 49 47 38 36 32 40 34 33 34 35 34 36 37 34 31 43 32 31 31 30 34 30 33 30 33 44 38 40 40
64 63 63 61 61 60 55 50 47 39 44 47 48 51 36 44 40 30 35 45 33 36 36 36 39 41 38 38 34 35 32 30 30 29 32 52 33 40 43 50 50 38 40
65 58 64 62 63 64 53 49 48 35 40 44 43 49 54 50 43 39 34 35 36 43 31 38 41 42 37 38 55 56 39 36 27 30 32 57 36 37 38 46 47 44 46
65 65 67 65 63 56 51 50 48 36 36 46 48 46 51 49 48 34 42 32 37 44 30 41 46 44 43 40 44 33 32 29 30 32 54 34 36 36 40 39 38 39 50
62 70 68 69 65 59 55 49 48 34 41 46 49 48 52 53 49 43 38 34 43 35 39 47 46 44 43 41 42 45 33 33 35 37 34 29 37 35 35 38 42 39 39
71 71 72 71 68 57 53 48 43 35 42 40 47 50 55 54 48 48 38 34 37 42 40 44 46 45 43 46 47 46 39 33 38 38 37 36 40 37 41 37 40 41 47
71 74 70 59 61 56 52 46 50 34 37 42 49 54 53 57 50 46 34 35 36 37 41 46 45 47 48 43 47 53 41 41 45 46 46 43 45 45 32 34 33 37 47
71 72 69 62 54 55 45 42 42 28 35 43 54 51 58 56 59 52 45 33 37 38 45 46 52 49 49 49 50 55 49 44 43 44 46 50 49 43 39 38 41 36 42
68 72 63 52 51 43 37 37 35 39 40 56 55 52 54 56 56 61 46 29 35 35 43 46 48 52 45 41 46 48 51 49 52 48 45 50 49 47 54 47 52 41 42
74 69 56 52 42 39 45 35 39 36 48 55 50 56 56 56 54 34 27 54 43 31 41 43 46 42 44 38 45 52 47 47 52 51 51 54 53 46 54 45 40 44 39
77 63 49 57 49 47 43 45 35 47 58 60 54 55 57 47 47 41 35 28 48 47 56 52 30 34 38 44 39 50 46 38 46 55 53 46 56 52 57 44 48 54 39
69 53 60 54 50 43 58 53 53 59 55 57 57 57 57 57 48 44 23 31 43 42 38 50 54 32 38 48 33 42 49 50 35 51 51 55 53 52 46 57 58 54 52
56 68 62 42 52 44 58 55 61 58 59 68 61 56 56 50 54 48 39 40 44 59 57 48 58 55 51 39 38 49 55 52 51 55 51 43 49 56 51 54 53 51 53
64 49 55 53 52 55 53 60 62 62 60 62 61 59 57 57 54 55 51 47 53 54 53 46 49 54 54 49 40 53 50 56 53 61 42 52 62 59 54 54 51 60 54
49 53 52 52 51 55 56 58 58 62 63 63 65 66 64 65 64 63 61 56 55 58 60 67 58 64 59 59 60 54 62 61 66 61 63 66 66 64 62 58 61 52 56
54 45 59 54 57 56 55 56 60 65 69 70 70 72 73 71 71 69 67 68 63 52 62 61 63 50 62 59 53 66 57 70 64 65 55 58 64 62 70 64 62 63 63
57 60 59 57 60 59 58 34 66 68 68 65 68 70 70 73 58 68 67 65 71 73 71 72 64 69 70 61 65 65 73 74 72 68 69 63 71 72 65 67 63 59 68
66 63 62 59 62 25 43 64 70 68 33 67 73 75 78 76 74 73 68 76 72 73 72 77 78 76 73 70 70 72 74 74 71 67 74 67 70 77 75 56 60 63 68
66 67 65 64 59 60 63 70 70 74 74 73 75 75 35 71 63 77 72 71 76 59 76 75 77 75 78 79 47 75 73 76 67 74 72 76 80 73 72 68 63 68 75
18 14 66 43 65 57 69 70 71 73 75 72 76 72 41 90 83 92 54 65 65 54 63 76 64 71 74 55 56 43 46 66 58 61 63 69 75 78 83 71 82 79 66
61 70 69 63 64 65 67 71 75 33 32 43 88 92 48 77 66 89 75 74 72 91 59 84 58 80 85 55 82 53 62 67 57 65 68 79 75 69 72 80 69 81 70
72 72 69 68 16 68 41 81 84 91 67 46 80 87 76 86 90 101 99 103 101 113 104 74 55 94 86 76 92 95 96 91 82 64 60 76 70 67 60 68 64 76 57
65 24 22 70 70 73 46 77 81 77 82 83 88 87 91 97 102 99 89 32 115 111 112 82 110 96 95 103 58 73 94 68 87 52 66 82 81 63 65 40 60 61 62
57 70 46 72 67 70 73 76 81 82 51 87 100 101 101 102 101 105 97 118 104 106 130 95 103 84 81 125 93 28 37 84 72 68 72 60 82 64 60 59 58 60 71
Wind_Direction
330 329 328 326 325 325 325 304 319 317 288 311 312 313 295 318 294 298 294 288 299 296 282 290 289 271 270 290 286 281 285 274 276 276 261 267 253 263 268 259 261 261 254
321 319 321 328 323 322 319 318 317 314 310 310 310 312 314 318 314 297 293 297 294 259 301 289 272 304 272 288 298 265 287 286 278 274 269 267 268 261 259 258 255 265 266
327 325 329 299 313 319 305 318 316 277 306 305 308 301 313 316 317 304 290 295 293 290 267 292 299 289 291 261 298 287 300 291 279 278 273 275 269 275 261 256 258 259 256
329 330 330 328 323 320 322 317 316 308 297 304 303 309 296 316 318 300 295 308 281 270 293 271 290 294 296 301 301 295 299 289 281 283 283 255 274 263 260 259 270 263 261
327 323 328 327 321 318 322 316 316 302 298 299 299 306 308 313 321 309 294 281 287 302 288 289 293 292 295 303 275 277 280 297 287 278 277 273 278 274 271 263 265 263 260
324 325 327 325 320 318 319 313 313 300 293 297 302 303 309 321 313 310 305 284 285 293 278 284 292 290 295 301 285 297 275 293 290 291 277 280 282 283 284 278 273 269 267
320 324 324 322 319 316 314 312 310 289 296 299 299 303 306 304 324 310 301 283 292 272 285 294 287 282 291 297 297 293 291 290 294 288 287 283 285 284 277 278 267 269 270
321 323 322 320 316 313 313 309 307 286 293 292 297 298 311 303 317 295 301 283 274 286 269 284 282 285 292 291 292 292 290 287 293 284 279 291 290 288 287 284 284 265 264
318 317 316 315 309 309 311 306 309 289 296 293 296 301 302 306 315 307 299 282 277 267 267 275 287 277 287 284 285 289 288 290 283 289 290 291 289 288 269 287 280 272 267
317 317 314 313 310 307 305 302 303 300 294 290 301 294 306 303 313 302 301 284 275 270 276 272 284 279 285 286 283 285 287 284 279 286 291 288 290 280 289 281 285 285 272
318 313 313 309 306 308 306 301 298 293 289 302 300 296 298 301 312 304 298 292 284 267 266 271 275 280 280 280 277 280 280 282 286 281 288 289 290 266 287 290 291 291 287
313 313 308 305 306 301 303 294 295 287 291 301 294 301 297 301 301 324 287 298 288 294 290 276 276 278 277 273 272 275 277 276 280 279 280 282 287 280 288 280 277 284 273
316 307 302 305 303 302 299 296 290 291 298 302 291 294 299 306 295 317 296 273 288 280 290 292 286 285 281 275 276 273 274 279 271 280 281 274 283 279 285 261 257 291 279
309 303 306 303 302 296 301 296 292 295 294 293 299 297 296 294 319 286 290 286 277 303 311 285 291 286 272 283 274 266 268 273 269 278 268 280 277 275 266 283 289 268 290
300 307 307 295 295 290 294 292 292 293 294 300 294 295 292 295 291 308 287 293 305 282 287 287 281 286 288 278 277 264 267 267 267 270 269 270 268 273 273 279 281 265 286
308 300 297 291 291 294 297 292 295 301 299 297 301 300 305 305 302 308 305 296 274 289 303 278 280 274 283 278 286 281 275 267 263 273 267 264 273 274 275 274 268 271 276
301 293 295 297 299 295 301 304 303 299 302 303 301 304 306 313 312 308 305 300 295 278 274 284 293 281 285 272 275 274 273 263 275 266 267 272 274 272 271 277 275 272 273
303 299 297 302 303 304 303 300 300 298 303 309 311 309 310 309 308 306 302 300 299 279 291 288 289 284 277 274 265 272 275 276 264 266 272 268 266 276 275 277 277 275 269
301 300 299 301 302 304 308 308 303 303 309 309 305 307 305 306 298 297 291 291 289 293 294 287 282 285 274 274 274 269 268 269 273 275 266 274 263 268 278 271 277 274 278
303 304 303 302 304 320 307 305 306 303 306 303 302 305 302 302 299 298 301 297 289 285 295 294 288 282 278 276 271 273 275 262 264 266 263 274 262 266 270 278 276 273 273
304 303 304 304 305 304 302 300 303 304 305 305 302 300 311 306 299 296 316 293 290 292 300 307 278 288 292 276 271 271 270 272 279 263 268 269 272 272 273 277 273 282 275
306 313 301 307 302 301 298 300 300 303 304 306 302 304 303 303 298 300 301 294 295 279 310 288 278 291 292 261 286 267 258 276 269 274 284 267 274 269 268 269 268 270 275
305 305 305 306 304 304 301 299 300 308 303 310 297 297 310 306 307 310 307 295 293 294 300 298 267 297 297 275 290 260 278 288 261 277 263 263 268 273 276 272 269 270 275
305 308 305 305 333 301 315 306 307 313 307 298 320 301 312 315 309 296 303 305 308 310 307 291 262 292 289 280 288 289 295 281 287 263 278 286 273 264 264 262 275 274 264
304 305 281 303 302 305 300 308 305 306 316 317 300 315 294 298 297 303 305 295 305 300 300 294 298 292 288 292 280 259 291 245 259 266 281 262 276 262 267 268 257 265 262
302 305 296 299 296 298 297 296 304 298 283 300 300 302 317 315 302 304 304 305 303 302 300 287 288 292 291 286 283 280 280 279 266 269 263 265 268 262 257 254 257 256 269